Time,TemperatureF,DewpointF,PressureIn,WindDirection,WindDirectionDegrees,WindSpeedMPH,WindSpeedGustMPH,Humidity,HourlyPrecipIn,Conditions,Clouds,dailyrainin,SoftwareType,DateUTC
2013-03-27 00:00:00,38.0,31.0,-100.00,NNE,13,3.0,-999.0,78,0.00,,,0.00,,2013-03-27 05:00:00,
2013-03-27 00:33:00,38.0,31.0,-100.00,NNE,13,3.0,-999.0,78,0.00,,,0.00,,2013-03-27 05:33:00,
2013-03-27 00:42:00,38.0,31.0,-100.00,NNE,13,3.0,-999.0,78,0.00,,,0.00,,2013-03-27 05:42:00,
2013-03-27 00:52:00,38.0,31.0,-100.00,NNE,13,3.0,-999.0,78,0.00,,,0.00,,2013-03-27 05:52:00,
2013-03-27 01:00:00,36.0,30.0,-100.00,NE,42,1.0,-999.0,80,0.00,,,0.00,,2013-03-27 06:00:00,
2013-03-27 01:32:00,36.0,30.0,-100.00,NE,42,1.0,-999.0,80,0.00,,,0.00,,2013-03-27 06:32:00,
2013-03-27 01:42:00,36.0,30.0,-100.00,NE,42,1.0,-999.0,80,0.00,,,0.00,,2013-03-27 06:42:00,
2013-03-27 01:53:00,36.0,30.0,-100.00,NE,42,1.0,-999.0,80,0.00,,,0.00,,2013-03-27 06:53:00,
2013-03-27 02:00:00,34.0,29.0,-100.00,East,86,0.0,-999.0,83,0.00,,,0.00,,2013-03-27 07:00:00,
2013-03-27 02:32:00,34.0,29.0,-100.00,East,86,0.0,-999.0,83,0.00,,,0.00,,2013-03-27 07:32:00,
2013-03-27 02:43:00,34.0,29.0,-100.00,East,86,0.0,-999.0,83,0.00,,,0.00,,2013-03-27 07:43:00,
2013-03-27 02:53:00,34.0,29.0,-100.00,East,86,0.0,-999.0,83,0.00,,,0.00,,2013-03-27 07:53:00,
2013-03-27 03:00:00,30.0,27.0,-100.00,SSW,195,2.0,-999.0,87,0.00,,,0.00,,2013-03-27 08:00:00,
2013-03-27 03:32:00,30.0,27.0,-100.00,SSW,195,2.0,-999.0,87,0.00,,,0.00,,2013-03-27 08:32:00,
2013-03-27 03:43:00,30.0,27.0,-100.00,SSW,195,2.0,-999.0,87,0.00,,,0.00,,2013-03-27 08:43:00,
2013-03-27 03:52:00,30.0,27.0,-100.00,SSW,195,2.0,-999.0,87,0.00,,,0.00,,2013-03-27 08:52:00,
2013-03-27 04:00:00,30.0,27.0,-100.00,South,185,1.0,-999.0,88,0.00,,,0.00,,2013-03-27 09:00:00,
2013-03-27 04:32:00,30.0,27.0,-100.00,South,185,1.0,-999.0,88,0.00,,,0.00,,2013-03-27 09:32:00,
2013-03-27 04:42:00,30.0,27.0,-100.00,South,185,1.0,-999.0,88,0.00,,,0.00,,2013-03-27 09:42:00,
2013-03-27 04:52:00,30.0,27.0,-100.00,South,185,1.0,-999.0,88,0.00,,,0.00,,2013-03-27 09:52:00,
2013-03-27 05:00:00,28.0,25.0,-100.00,South,186,4.0,-999.0,88,0.00,,,0.00,,2013-03-27 10:00:00,
2013-03-27 05:32:00,28.0,25.0,-100.00,South,186,4.0,-999.0,88,0.00,,,0.00,,2013-03-27 10:32:00,
2013-03-27 05:42:00,28.0,25.0,-100.00,South,186,4.0,-999.0,88,0.00,,,0.00,,2013-03-27 10:42:00,
2013-03-27 05:53:00,28.0,25.0,-100.00,South,186,4.0,-999.0,88,0.00,,,0.00,,2013-03-27 10:53:00,
2013-03-27 06:00:00,30.0,26.0,-100.00,SW,218,1.0,-999.0,86,0.00,,,0.00,,2013-03-27 11:00:00,
2013-03-27 06:32:00,30.0,26.0,-100.00,SW,218,1.0,-999.0,86,0.00,,,0.00,,2013-03-27 11:32:00,
2013-03-27 06:42:00,30.0,26.0,-100.00,SW,218,1.0,-999.0,86,0.00,,,0.00,,2013-03-27 11:42:00,
2013-03-27 06:53:00,30.0,26.0,-100.00,SW,218,1.0,-999.0,86,0.00,,,0.00,,2013-03-27 11:53:00,
2013-03-27 07:00:00,30.0,27.0,-100.00,East,95,1.0,-999.0,87,0.00,,,0.00,,2013-03-27 12:00:00,
2013-03-27 07:32:00,30.0,27.0,-100.00,East,95,1.0,-999.0,87,0.00,,,0.00,,2013-03-27 12:32:00,
2013-03-27 07:43:00,30.0,27.0,-100.00,East,95,1.0,-999.0,87,0.00,,,0.00,,2013-03-27 12:43:00,
2013-03-27 07:52:00,30.0,27.0,-100.00,East,95,1.0,-999.0,87,0.00,,,0.00,,2013-03-27 12:52:00,
2013-03-27 08:00:00,32.0,26.0,-100.00,SE,130,2.0,-999.0,78,0.00,,,0.00,,2013-03-27 13:00:00,
2013-03-27 08:32:00,32.0,26.0,-100.00,SE,130,2.0,-999.0,78,0.00,,,0.00,,2013-03-27 13:32:00,
2013-03-27 08:42:00,32.0,26.0,-100.00,SE,130,2.0,-999.0,78,0.00,,,0.00,,2013-03-27 13:42:00,
2013-03-27 08:53:00,32.0,26.0,-100.00,SE,130,2.0,-999.0,78,0.00,,,0.00,,2013-03-27 13:53:00,
2013-03-27 09:00:00,37.0,30.0,-100.00,SSE,162,5.0,-999.0,77,0.00,,,0.00,,2013-03-27 14:00:00,
2013-03-27 09:32:00,37.0,30.0,-100.00,SSE,162,5.0,-999.0,77,0.00,,,0.00,,2013-03-27 14:32:00,
2013-03-27 09:42:00,37.0,30.0,-100.00,SSE,162,5.0,-999.0,77,0.00,,,0.00,,2013-03-27 14:42:00,
2013-03-27 09:52:00,37.0,30.0,-100.00,SSE,162,5.0,-999.0,77,0.00,,,0.00,,2013-03-27 14:52:00,
2013-03-27 10:00:00,43.0,31.0,-100.00,SSE,157,8.0,-999.0,61,0.00,,,0.00,,2013-03-27 15:00:00,
2013-03-27 10:33:00,43.0,31.0,-100.00,SSE,157,8.0,-999.0,61,0.00,,,0.00,,2013-03-27 15:33:00,
2013-03-27 10:43:00,43.0,31.0,-100.00,SSE,157,8.0,-999.0,61,0.00,,,0.00,,2013-03-27 15:43:00,
2013-03-27 10:52:00,43.0,31.0,-100.00,SSE,157,8.0,-999.0,61,0.00,,,0.00,,2013-03-27 15:52:00,
2013-03-27 11:00:00,51.0,30.0,-100.00,SSE,156,10.0,-999.0,44,0.00,,,0.00,,2013-03-27 16:00:00,
2013-03-27 11:32:00,51.0,30.0,-100.00,SSE,156,10.0,-999.0,44,0.00,,,0.00,,2013-03-27 16:32:00,
2013-03-27 11:42:00,51.0,30.0,-100.00,SSE,156,10.0,-999.0,44,0.00,,,0.00,,2013-03-27 16:42:00,
2013-03-27 11:52:00,51.0,30.0,-100.00,SSE,156,10.0,-999.0,44,0.00,,,0.00,,2013-03-27 16:52:00,
2013-03-27 12:00:00,55.0,27.0,-100.00,SSE,159,9.0,-999.0,34,0.00,,,0.00,,2013-03-27 17:00:00,
2013-03-27 12:32:00,55.0,27.0,-100.00,SSE,159,9.0,-999.0,34,0.00,,,0.00,,2013-03-27 17:32:00,
2013-03-27 12:44:00,55.0,27.0,-100.00,SSE,159,9.0,-999.0,34,0.00,,,0.00,,2013-03-27 17:44:00,
2013-03-27 12:52:00,55.0,27.0,-100.00,SSE,159,9.0,-999.0,34,0.00,,,0.00,,2013-03-27 17:52:00,
2013-03-27 13:00:00,58.0,26.0,-100.00,South,170,11.0,-999.0,29,0.00,,,0.00,,2013-03-27 18:00:00,
2013-03-27 13:32:00,58.0,26.0,-100.00,South,170,11.0,-999.0,29,0.00,,,0.00,,2013-03-27 18:32:00,
2013-03-27 13:42:00,58.0,26.0,-100.00,South,170,11.0,-999.0,29,0.00,,,0.00,,2013-03-27 18:42:00,
2013-03-27 13:53:00,58.0,26.0,-100.00,South,170,11.0,-999.0,29,0.00,,,0.00,,2013-03-27 18:53:00,
2013-03-27 14:00:00,60.0,28.0,-100.00,South,172,9.0,-999.0,29,0.00,,,0.00,,2013-03-27 19:00:00,
2013-03-27 14:32:00,60.0,28.0,-100.00,South,172,9.0,-999.0,29,0.00,,,0.00,,2013-03-27 19:32:00,
2013-03-27 14:42:00,60.0,28.0,-100.00,South,172,9.0,-999.0,29,0.00,,,0.00,,2013-03-27 19:42:00,
2013-03-27 14:52:00,60.0,28.0,-100.00,South,172,9.0,-999.0,29,0.00,,,0.00,,2013-03-27 19:52:00,
2013-03-27 15:00:00,62.0,26.0,-100.00,SSE,168,13.0,-999.0,25,0.00,,,0.00,,2013-03-27 20:00:00,
2013-03-27 15:32:00,62.0,26.0,-100.00,SSE,168,13.0,-999.0,25,0.00,,,0.00,,2013-03-27 20:32:00,
2013-03-27 15:43:00,62.0,26.0,-100.00,SSE,168,13.0,-999.0,25,0.00,,,0.00,,2013-03-27 20:43:00,
2013-03-27 15:52:00,62.0,26.0,-100.00,SSE,168,13.0,-999.0,25,0.00,,,0.00,,2013-03-27 20:52:00,
2013-03-27 16:00:00,64.0,26.0,-100.00,SSE,162,13.0,-999.0,24,0.00,,,0.00,,2013-03-27 21:00:00,
2013-03-27 16:32:00,64.0,26.0,-100.00,SSE,162,13.0,-999.0,24,0.00,,,0.00,,2013-03-27 21:32:00,
2013-03-27 16:43:00,64.0,26.0,-100.00,SSE,162,13.0,-999.0,24,0.00,,,0.00,,2013-03-27 21:43:00,
2013-03-27 16:52:00,64.0,26.0,-100.00,SSE,162,13.0,-999.0,24,0.00,,,0.00,,2013-03-27 21:52:00,
2013-03-27 17:00:00,65.0,27.0,-100.00,SSE,161,13.0,-999.0,24,0.00,,,0.00,,2013-03-27 22:00:00,
2013-03-27 17:33:00,65.0,27.0,-100.00,SSE,161,13.0,-999.0,24,0.00,,,0.00,,2013-03-27 22:33:00,
2013-03-27 17:42:00,65.0,27.0,-100.00,SSE,161,13.0,-999.0,24,0.00,,,0.00,,2013-03-27 22:42:00,
2013-03-27 17:53:00,65.0,27.0,-100.00,SSE,161,13.0,-999.0,24,0.00,,,0.00,,2013-03-27 22:53:00,
2013-03-27 18:00:00,65.0,26.0,-100.00,SSE,163,11.0,-999.0,23,0.00,,,0.00,,2013-03-27 23:00:00,
2013-03-27 18:32:00,65.0,26.0,-100.00,SSE,163,11.0,-999.0,23,0.00,,,0.00,,2013-03-27 23:32:00,
2013-03-27 18:42:00,65.0,26.0,-100.00,SSE,163,11.0,-999.0,23,0.00,,,0.00,,2013-03-27 23:42:00,
2013-03-27 18:52:00,65.0,26.0,-100.00,SSE,163,11.0,-999.0,23,0.00,,,0.00,,2013-03-27 23:52:00,
2013-03-27 19:00:00,63.0,26.0,-100.00,SSE,162,10.0,-999.0,24,0.00,,,0.00,,2013-03-28 00:00:00,
2013-03-27 19:32:00,63.0,26.0,-100.00,SSE,162,10.0,-999.0,24,0.00,,,0.00,,2013-03-28 00:32:00,
2013-03-27 19:43:00,63.0,26.0,-100.00,SSE,162,10.0,-999.0,24,0.00,,,0.00,,2013-03-28 00:43:00,
2013-03-27 19:52:00,63.0,26.0,-100.00,SSE,162,10.0,-999.0,24,0.00,,,0.00,,2013-03-28 00:52:00,
2013-03-27 20:00:00,59.0,27.0,-100.00,SSE,150,4.0,-999.0,29,0.00,,,0.00,,2013-03-28 01:00:00,
2013-03-27 20:32:00,59.0,27.0,-100.00,SSE,150,4.0,-999.0,29,0.00,,,0.00,,2013-03-28 01:32:00,
2013-03-27 20:42:00,59.0,27.0,-100.00,SSE,150,4.0,-999.0,29,0.00,,,0.00,,2013-03-28 01:42:00,
2013-03-27 20:53:00,59.0,27.0,-100.00,SSE,150,4.0,-999.0,29,0.00,,,0.00,,2013-03-28 01:53:00,
2013-03-27 21:00:00,56.0,27.0,-100.00,ESE,108,3.0,-999.0,32,0.00,,,0.00,,2013-03-28 02:00:00,
2013-03-27 21:32:00,56.0,27.0,-100.00,ESE,108,3.0,-999.0,32,0.00,,,0.00,,2013-03-28 02:32:00,
2013-03-27 21:42:00,56.0,27.0,-100.00,ESE,108,3.0,-999.0,32,0.00,,,0.00,,2013-03-28 02:42:00,
2013-03-27 21:52:00,56.0,27.0,-100.00,ESE,108,3.0,-999.0,32,0.00,,,0.00,,2013-03-28 02:52:00,
2013-03-27 22:00:00,54.0,27.0,-100.00,ESE,102,4.0,-999.0,34,0.00,,,0.00,,2013-03-28 03:00:00,
2013-03-27 22:33:00,54.0,27.0,-100.00,ESE,102,4.0,-999.0,34,0.00,,,0.00,,2013-03-28 03:33:00,
2013-03-27 22:43:00,54.0,27.0,-100.00,ESE,102,4.0,-999.0,34,0.00,,,0.00,,2013-03-28 03:43:00,
2013-03-27 22:53:00,54.0,27.0,-100.00,ESE,102,4.0,-999.0,34,0.00,,,0.00,,2013-03-28 03:53:00,
2013-03-27 23:00:00,49.0,30.0,-100.00,SE,143,3.0,-999.0,47,0.00,,,0.00,,2013-03-28 04:00:00,
2013-03-27 23:32:00,49.0,30.0,-100.00,SE,143,3.0,-999.0,47,0.00,,,0.00,,2013-03-28 04:32:00,
2013-03-27 23:42:00,49.0,30.0,-100.00,SE,143,3.0,-999.0,47,0.00,,,0.00,,2013-03-28 04:42:00,
2013-03-27 23:52:00,49.0,30.0,-100.00,SE,143,3.0,-999.0,47,0.00,,,0.00,,2013-03-28 04:52:00,